This demonstration page uses our WeatherBlox Daily Observations layout. Learn more.

Left ArrowRight Arrow

41.55636, -103.73856

Hourly Observations for February 3, 2018

Temp ( °F °C ) Dew Point ( °F °C ) Humidity (%) Winds ( mph kmh ) Pressure ( in mb ) Visibility ( mi km ) Precip ( " mm )
12:53 am 00:53 Clear 37 2.8 31 -0.6 79 79 NW 6 9 29.86 1011 10 16 N/A
1:53 am 01:53 Mostly Cloudy 42 5.6 34 1.1 73 73 WNW 12 19 29.81 1010 10 16 N/A
2:53 am 02:53 Mostly Cloudy 43 6.1 33 0.6 68 68 WNW 7 11 29.80 1009 10 16 N/A
3:53 am 03:53 Mostly Cloudy 45 7.2 32 undefined 61 61 W 9 15 29.78 1008 10 16 N/A
4:53 am 04:53 Mostly Cloudy 47 8.3 33 0.6 59 59 WNW 15 24 29.80 1009 10 16 N/A
5:53 am 05:53 Cloudy 42 5.6 32 undefined 68 68 NW 10 17 29.84 1011 10 16 N/A
6:53 am 06:53 Mostly Clear 39 3.9 31 -0.6 73 73 WNW 10 17 29.87 1012 10 16 N/A
7:53 am 07:53 Sunny 40 4.4 33 0.6 77 77 N N/A 29.87 1012 10 16 N/A
8:53 am 08:53 Sunny 44 6.7 33 0.6 65 65 VRB 3 6 29.85 1011 10 16 N/A
9:53 am 09:53 Sunny 42 5.6 34 1.1 73 73 N 6 9 29.86 1011 10 16 N/A
10:53 am 10:53 Sunny 48 8.9 34 1.1 58 58 WNW 6 9 29.83 1010 10 16 N/A
11:53 am 11:53 Sunny 50 10 33 0.6 52 52 NNW 6 9 29.80 1009 10 16 N/A
12:53 pm 12:53 Mostly Sunny 50 10 32 undefined 50 50 N 3 6 29.76 1008 10 16 N/A
1:53 pm 13:53 Cloudy 49 9.4 33 0.6 55 55 NNW 17 28 29.75 1007 10 16 N/A
2:53 pm 14:53 Partly Cloudy 45 7.2 37 2.8 74 74 N 10 17 29.77 1008 10 16 N/A
3:53 pm 15:53 Sunny 46 7.8 35 1.7 66 66 NW 10 17 29.76 1008 10 16 N/A
4:53 pm 16:53 Cloudy 43 6.1 35 1.7 74 74 WNW 6 9 29.78 1009 10 16 N/A
5:53 pm 17:53 Mostly Cloudy 37 2.8 33 0.6 86 86 W 6 9 29.82 1010 10 16 N/A
6:53 pm 18:53 Cloudy 37 2.8 32 undefined 82 82 N 8 13 29.86 1011 10 16 N/A
7:20 pm 19:20 Cloudy with Light Rain 36 2 34 1 93 93 NNE 24 39 29.94 1014 10 16 N/A
7:33 pm 19:33 Cloudy with Light Rain 32 undefined 28 -2 87 87 NNE 22 35 30.00 1016 10 16 N/A
7:51 pm 19:51 Cloudy 28 -2 25 -4 86 86 NNE 21 33 30.03 1017 10 16 N/A
7:53 pm 19:53 Cloudy 28 -2.2 25 -3.9 88 88 NE 21 33 29.95 1014 10 16 N/A
8:01 pm 20:01 Cloudy 28 -2.2 24 -4.4 85 85 NNE 16 26 30.06 1018 10 16 N/A
8:13 pm 20:13 Cloudy 27 -2.8 23 -5 85 85 NNE 10 17 30.09 1019 10 16 N/A
8:50 pm 20:50 Cloudy 25 -4 18 -8 74 74 NE 10 17 30.15 1021 9 14 N/A
8:53 pm 20:53 Cloudy with Light Snow 24 -4.4 18 -7.8 77 77 NE 12 19 30.03 1017 5 8 N/A
9:02 pm 21:02 Cloudy with Light Snow 21 -6 18 -8 86 86 NNE 13 20 30.18 1022 2 3 N/A
9:17 pm 21:17 Cloudy with Light Snow 21 -6.1 17 -8.3 85 85 NNE 12 19 30.21 1023 1 1 0.02 0.51
9:53 pm 21:53 Mostly Cloudy with Light Snow 19 -7.2 15 -9.4 84 84 NNE 14 22 30.10 1019 1 1 0.05 1.27
10:05 pm 22:05 Mostly Cloudy with Snow 18 -7.8 15 -9.4 88 88 NE 12 19 30.27 1025 1 1 0.01 0.25
10:49 pm 22:49 Mostly Cloudy with Light Snow 18 -8 12 -11 79 79 NE 12 19 30.27 1025 1 1 0.06 1.52
10:53 pm 22:53 Mostly Cloudy with Light Snow 16 -8.9 13 -10.6 88 88 NE 12 19 30.10 1019 1 1 0.06 1.52
11:11 pm 23:11 Cloudy with Light Snow 15 -9.4 12 -11.1 88 88 NE 9 15 30.30 1026 2 3 0.02 0.51
11:15 pm 23:15 Cloudy with Light Snow 15 -9.4 12 -11.1 88 88 NE 10 17 30.30 1026 3 4 0.02 0.51
11:24 pm 23:24 Cloudy with Light Snow 15 -9.4 11 -11.7 84 84 ENE 12 19 30.30 1026 3 5 0.02 0.51
11:53 pm 23:53 Cloudy 14 -10 9 -12.8 80 80 NNE 13 20 30.11 1020 7 11 0.02 0.51

Powered by AerisWeather